This is the latest recevied weather packets stored in our database for station/object ANJALA. If no packets are shown the sender has not sent any weather packets the latest 10 day(s).
| Time | Temp. | Humidity | Pressure | Rain* | Wind** | Luminosity | Snow |
|---|---|---|---|---|---|---|---|
| 1788636291 | 11.11° C | 91% | - | 0 mm | - | - | - |
| 1788635091 | 11.67° C | 87% | - | 0 mm | - | - | - |
| 1788633892 | 12.22° C | 86% | - | 0 mm | - | - | - |
| 1788632690 | 12.22° C | 85% | - | 0 mm | - | - | - |
| 1788631488 | 12.22° C | 87% | - | 0 mm | - | - | - |
| 1788630289 | 11.67° C | 90% | - | 0 mm | - | - | - |
| 1788629089 | 12.22° C | 87% | - | 0 mm | - | - | - |
| 1788627889 | 12.78° C | 85% | - | 0 mm | - | - | - |
| 1788626690 | 13.33° C | 76% | - | 0 mm | - | - | - |
| 1788625280 | 13.89° C | 74% | - | 0 mm | - | - | - |
| 1788624289 | 14.44° C | 69% | - | 0 mm | - | - | - |
| 1788622879 | 15.56° C | 67% | - | 0 mm | - | - | - |
| 1788621891 | 16.67° C | 61% | - | 0 mm | - | - | - |
| 1788620711 | 16.11° C | 64% | - | 0 mm | - | - | - |
| 1788619279 | 16.67° C | 62% | - | 0 mm | - | - | - |
| 1788618078 | 16.67° C | 60% | - | 0 mm | - | - | - |
| 1788617090 | 17.22° C | 56% | - | 0 mm | - | - | - |
| 1788615889 | 16.67° C | 55% | - | 0 mm | - | - | - |
| 1788614690 | 17.78° C | 52% | - | 0 mm | - | - | - |
| 1788613492 | 17.22° C | 55% | - | 0 mm | - | - | - |
| 1788612289 | 17.22° C | 50% | - | 0 mm | - | - | - |
| 1788611089 | 17.78° C | 52% | - | 0 mm | - | - | - |
| 1788609889 | 17.22° C | 53% | - | 0 mm | - | - | - |
| 1788605088 | 15° C | 82% | - | 0 mm | - | - | - |
| 1788603889 | 15° C | 83% | - | 0 mm | - | - | - |
* Rain latest hour (hover to see other rain measurements)
** Current wind speed in m/s (hover to see current wind gust speed)